SES-22

Last updated on Mon Oct 14 2024 00:02:41 GMT+0000 (Coordinated Universal Time)

1 52933U 22071A 24287.54285442 .00000103 00000+0 00000+0 0 9993 2 52933 0.0191 158.2724 0002616 70.8592 209.9045 1.00270604 1381
UTC large
Height (km)
Speed (km/s)
/
Latitude / Longitude
Inclination (degrees)
Orbital Period (minutes)
Azimuth
Elevation
Range (km)
Doppler Factor

Next 0 passes for location: London (51.5072 / 0.1276)

Sorry there are no passes over London.